TimeCDT,TemperatureF,Dew PointF,Humidity,Sea Level PressureIn,VisibilityMPH,Wind Direction,Wind SpeedMPH,Gust SpeedMPH,PrecipitationIn,Events,Conditions,WindDirDegrees,DateUTC
12:15 AM,60.8,42.1,50,30.01,10.0,East,3.5,-,N/A,,Clear,80,2013-05-08 05:15:00
12:35 AM,59.4,43.2,55,30.00,10.0,ENE,3.5,-,N/A,,Clear,70,2013-05-08 05:35:00
12:55 AM,59.0,42.8,55,30.00,10.0,East,4.6,-,N/A,,Clear,90,2013-05-08 05:55:00
1:15 AM,57.6,43.9,60,30.00,10.0,East,3.5,-,N/A,,Clear,80,2013-05-08 06:15:00
1:35 AM,57.2,43.7,61,30.00,10.0,East,4.6,-,N/A,,Clear,80,2013-05-08 06:35:00
1:55 AM,55.8,44.2,65,30.00,10.0,Calm,Calm,-,N/A,,Clear,0,2013-05-08 06:55:00
2:15 AM,55.2,44.1,66,29.99,10.0,ENE,3.5,-,N/A,,Clear,70,2013-05-08 07:15:00
2:35 AM,54.3,44.6,70,29.99,10.0,Calm,Calm,-,N/A,,Clear,0,2013-05-08 07:35:00
2:55 AM,53.1,44.6,73,30.00,10.0,Calm,Calm,-,N/A,,Clear,0,2013-05-08 07:55:00
3:15 AM,52.5,45.0,75,29.99,10.0,Calm,Calm,-,N/A,,Clear,0,2013-05-08 08:15:00
3:35 AM,53.1,45.5,75,29.99,10.0,Calm,Calm,-,N/A,,Clear,0,2013-05-08 08:35:00
3:55 AM,52.9,45.5,76,30.00,10.0,Calm,Calm,-,N/A,,Clear,0,2013-05-08 08:55:00
4:15 AM,52.2,45.5,78,30.00,10.0,Calm,Calm,-,N/A,,Clear,0,2013-05-08 09:15:00
4:35 AM,52.5,45.5,77,30.00,10.0,Calm,Calm,-,N/A,,Clear,0,2013-05-08 09:35:00
4:55 AM,52.0,45.5,79,30.00,10.0,Calm,Calm,-,N/A,,Clear,0,2013-05-08 09:55:00
5:15 AM,49.8,45.0,83,30.01,10.0,Calm,Calm,-,N/A,,Clear,0,2013-05-08 10:15:00
5:35 AM,52.3,45.5,78,30.01,10.0,North,3.5,-,N/A,,Clear,360,2013-05-08 10:35:00
5:55 AM,52.7,45.0,75,30.01,10.0,North,3.5,-,N/A,,Clear,360,2013-05-08 10:55:00
6:15 AM,52.0,45.0,77,30.02,10.0,Calm,Calm,-,N/A,,Clear,0,2013-05-08 11:15:00
6:35 AM,53.4,45.5,75,30.02,10.0,Calm,Calm,-,N/A,,Clear,0,2013-05-08 11:35:00
6:55 AM,54.9,46.4,73,30.03,10.0,Calm,Calm,-,N/A,,Clear,0,2013-05-08 11:55:00
7:15 AM,57.2,46.8,68,30.03,10.0,NNE,3.5,-,N/A,,Clear,20,2013-05-08 12:15:00
7:55 AM,62.6,48.2,59,30.04,10.0,Calm,Calm,-,0.12,,Clear,0,2013-05-08 12:55:00
8:18 AM,62.6,48.2,59,30.04,10.0,Calm,Calm,-,N/A,,Clear,0,2013-05-08 13:18:00
8:35 AM,65.5,48.0,53,30.04,10.0,Calm,Calm,-,N/A,,Clear,0,2013-05-08 13:35:00
8:55 AM,67.1,48.0,50,30.03,10.0,Calm,Calm,-,N/A,,Clear,0,2013-05-08 13:55:00
9:15 AM,68.4,48.4,49,30.04,10.0,Calm,Calm,-,N/A,,Clear,0,2013-05-08 14:15:00
9:35 AM,69.6,48.9,48,30.04,10.0,Calm,Calm,-,N/A,,Clear,0,2013-05-08 14:35:00
9:55 AM,72.1,49.1,44,30.03,10.0,South,3.5,-,N/A,,Clear,170,2013-05-08 14:55:00
10:15 AM,73.4,47.7,40,30.04,10.0,Calm,Calm,-,N/A,,Clear,0,2013-05-08 15:15:00
10:35 AM,74.3,48.2,40,30.03,10.0,Calm,Calm,-,N/A,,Clear,0,2013-05-08 15:35:00
10:55 AM,75.4,45.5,34,30.03,10.0,Calm,Calm,-,N/A,,Clear,0,2013-05-08 15:55:00
11:15 AM,77.2,44.2,31,30.03,10.0,East,3.5,-,N/A,,Clear,90,2013-05-08 16:15:00
11:35 AM,76.6,43.0,30,30.03,10.0,Calm,Calm,-,N/A,,Clear,0,2013-05-08 16:35:00
11:55 AM,78.8,43.0,28,30.02,10.0,WNW,4.6,-,N/A,,Clear,300,2013-05-08 16:55:00
12:15 PM,78.6,41.5,27,30.02,10.0,Calm,Calm,-,N/A,,Clear,0,2013-05-08 17:15:00
12:35 PM,79.5,40.6,25,30.01,10.0,Calm,Calm,-,N/A,,Clear,0,2013-05-08 17:35:00
12:55 PM,79.9,40.8,25,30.01,10.0,West,5.8,-,N/A,,Clear,280,2013-05-08 17:55:00
1:15 PM,78.8,41.4,26,30.00,10.0,WSW,3.5,-,N/A,,Clear,250,2013-05-08 18:15:00
1:35 PM,79.7,41.0,25,29.99,10.0,Calm,Calm,-,N/A,,Scattered Clouds,0,2013-05-08 18:35:00
1:55 PM,80.2,39.4,23,29.99,10.0,Calm,Calm,-,N/A,,Scattered Clouds,0,2013-05-08 18:55:00
2:15 PM,78.8,39.7,25,29.99,10.0,Calm,Calm,-,N/A,,Clear,0,2013-05-08 19:15:00
2:35 PM,80.1,40.8,25,29.98,10.0,Calm,Calm,-,N/A,,Clear,0,2013-05-08 19:35:00
2:55 PM,78.8,43.0,28,29.98,10.0,Calm,Calm,-,N/A,,Scattered Clouds,0,2013-05-08 19:55:00
3:15 PM,78.8,42.8,28,29.98,10.0,Calm,Calm,-,N/A,,Mostly Cloudy,0,2013-05-08 20:15:00
3:35 PM,79.3,41.5,26,29.97,10.0,Calm,Calm,-,N/A,,Scattered Clouds,0,2013-05-08 20:35:00
3:55 PM,82.2,41.7,24,29.96,10.0,Calm,Calm,-,N/A,,Scattered Clouds,0,2013-05-08 20:55:00
4:15 PM,79.9,42.1,26,29.96,10.0,West,3.5,-,N/A,,Scattered Clouds,260,2013-05-08 21:15:00
4:35 PM,79.9,39.7,24,29.96,10.0,Calm,Calm,-,N/A,,Scattered Clouds,0,2013-05-08 21:35:00
4:55 PM,79.9,41.4,25,29.96,10.0,Calm,Calm,-,N/A,,Mostly Cloudy,0,2013-05-08 21:55:00
5:15 PM,80.6,40.8,24,29.96,10.0,Calm,Calm,-,N/A,,Mostly Cloudy,0,2013-05-08 22:15:00
5:35 PM,79.9,42.4,26,29.95,10.0,WSW,5.8,-,N/A,,Mostly Cloudy,250,2013-05-08 22:35:00
5:55 PM,79.9,42.3,26,29.95,10.0,WNW,10.4,-,N/A,,Mostly Cloudy,300,2013-05-08 22:55:00
6:15 PM,79.3,40.1,25,29.95,10.0,WNW,8.1,-,N/A,,Scattered Clouds,290,2013-05-08 23:15:00
6:35 PM,77.4,41.0,27,29.95,10.0,NW,3.5,-,N/A,,Clear,320,2013-05-08 23:35:00
6:55 PM,75.2,43.3,32,29.96,10.0,NW,4.6,-,N/A,,Clear,310,2013-05-08 23:55:00
7:15 PM,74.1,46.2,37,29.96,10.0,East,9.2,-,N/A,,Clear,90,2013-05-09 00:15:00
7:35 PM,72.7,46.6,39,29.96,10.0,East,8.1,-,N/A,,Clear,90,2013-05-09 00:35:00
7:55 PM,71.1,46.8,42,29.97,10.0,East,6.9,-,N/A,,Clear,90,2013-05-09 00:55:00
8:15 PM,69.3,46.9,45,29.97,10.0,East,6.9,-,N/A,,Clear,100,2013-05-09 01:15:00
8:35 PM,68.7,46.0,44,29.97,10.0,East,5.8,-,N/A,,Clear,90,2013-05-09 01:35:00
8:55 PM,68.5,46.0,44,29.98,10.0,East,5.8,-,N/A,,Clear,90,2013-05-09 01:55:00
9:15 PM,68.5,46.4,45,29.98,10.0,ENE,3.5,-,N/A,,Clear,70,2013-05-09 02:15:00
9:35 PM,68.2,46.2,45,29.99,10.0,East,3.5,-,N/A,,Clear,90,2013-05-09 02:35:00
9:55 PM,67.1,46.6,48,29.99,10.0,East,3.5,-,N/A,,Clear,80,2013-05-09 02:55:00
10:15 PM,66.7,46.8,49,29.99,10.0,East,3.5,-,N/A,,Clear,90,2013-05-09 03:15:00
10:35 PM,66.2,47.3,51,29.98,10.0,East,4.6,-,N/A,,Clear,80,2013-05-09 03:35:00
11:15 PM,64.8,47.3,53,29.98,10.0,Calm,Calm,-,N/A,,Clear,0,2013-05-09 04:15:00
11:55 PM,60.4,48.2,64,29.97,10.0,Calm,Calm,-,N/A,,Clear,0,2013-05-09 04:55:00